Terminal Aerodrome Forecast
Issued by NWS Topeka, KS

Home | Current Version | Previous Version | Graphics & Text | Print | Product List | Glossary On
Versions: 1 2 3 4 5 6 7 8 9 10 11 12 13 14 15
000
FTUS43 KTOP 271600 AAB
TAFTOP
TAF AMD
KTOP 271617Z 2716/2812 29011KT P6SM SCT015 BKN120
     FM271800 32009KT P6SM BKN035
     FM272300 31002KT P6SM FEW200=

USA.gov is the U.S. government's official web portal to all federal, state and local government web resources and services.